WetterOnline ( https://www.wetteronline.de )

Wetter aktuell Putbus/Rügen

Aktuelles Wetter: Putbus/Rügen (41m)

6-stündlich | Neueste Meldungen
Ortszeit Temperatur Wetter
Mi, 08.04. 2:00 4.2° C wolkig
Di, 07.04. 20:00 9.7° C wolkig
Di, 07.04. 14:00 13.7° C wolkenlos
Di, 07.04. 8:00 9.9° C wolkenlos
Di, 07.04. 2:00 10.2° C wolkenlos
Mo, 06.04. 20:00 15.8° C wolkenlos
Mo, 06.04. 14:00 15.0° C wolkenlos
Mo, 06.04. 8:00 7.0° C wolkenlos
Ortszeit Temperatur Wetter
Mi, 08.04. 4:00 4.4° C leicht bewölkt
Mi, 08.04. 3:50 4.4° C leicht bewölkt
Mi, 08.04. 3:40 5.0° C leicht bewölkt
Mi, 08.04. 3:30 4.4° C leicht bewölkt
Mi, 08.04. 3:20 4.4° C leicht bewölkt
Mi, 08.04. 3:10 4.5° C leicht bewölkt
Mi, 08.04. 3:00 4.5° C wolkig
Mi, 08.04. 2:30 5.4° C wolkig
Mi, 08.04. 2:00 4.2° C wolkig
Mi, 08.04. 1:30 4.4° C wolkig
Mi, 08.04. 1:00 5.1° C wolkig
Ortszeit Relative Feuchte Sichtweite
Mi, 08.04. 2:00 87% 40 km
Di, 07.04. 20:00 69% 55 km
Di, 07.04. 14:00 52% 45 km
Di, 07.04. 8:00 79% 14 km
Di, 07.04. 2:00 56% 40 km
Mo, 06.04. 20:00 41% 40 km
Mo, 06.04. 14:00 41% 30 km
Mo, 06.04. 8:00 63% 30 km
Ortszeit Relative Feuchte Sichtweite
Mi, 08.04. 4:00 85% 35 km
Mi, 08.04. 3:50 85% -
Mi, 08.04. 3:40 84% -
Mi, 08.04. 3:30 87% 35 km
Mi, 08.04. 3:20 87% -
Mi, 08.04. 3:10 85% -
Mi, 08.04. 3:00 86% 40 km
Mi, 08.04. 2:30 85% 35 km
Mi, 08.04. 2:00 87% 40 km
Mi, 08.04. 1:30 84% 45 km
Mi, 08.04. 1:00 83% 35 km
Ortszeit Niederschlagsmenge Niederschlagsart
Mi, 08.04. 2:00 0.0 l/m2 in 6 Std. -
Di, 07.04. 20:00 0.0 l/m2 in 12 Std. -
Di, 07.04. 14:00 0.0 l/m2 in 6 Std. -
Di, 07.04. 8:00 0.0 l/m2 in 12 Std. -
Di, 07.04. 2:00 0.0 l/m2 in 6 Std. -
Mo, 06.04. 20:00 0.0 l/m2 in 12 Std. -
Mo, 06.04. 14:00 0.0 l/m2 in 6 Std. -
Mo, 06.04. 8:00 0.0 l/m2 in 12 Std. -
Ortszeit Niederschlagsmenge Niederschlagsart
Mi, 08.04. 4:00 0.0 l/m2 in 1 Std. -
Mi, 08.04. 3:50 keine Meldung -
Mi, 08.04. 3:40 keine Meldung -
Mi, 08.04. 3:30 0.0 l/m2 in 1 Std. -
Mi, 08.04. 3:20 keine Meldung -
Mi, 08.04. 3:10 keine Meldung -
Mi, 08.04. 3:00 0.0 l/m2 in 1 Std. -
Mi, 08.04. 2:30 0.0 l/m2 in 1 Std. -
Mi, 08.04. 2:00 0.0 l/m2 in 1 Std. -
Mi, 08.04. 1:30 0.0 l/m2 in 1 Std. -
Mi, 08.04. 1:00 0.0 l/m2 in 1 Std. -
Ortszeit Stärke Spitze Richtung
km/h Bft. km/h Grad Sektor
Mi, 08.04. 2:00 4 1 7 20° N
Di, 07.04. 20:00 7 2 40 290° W
Di, 07.04. 14:00 26 4 46 310° NW
Di, 07.04. 8:00 26 4 44 300° NW
Di, 07.04. 2:00 9 2 20 200° S
Mo, 06.04. 20:00 11 2 29 190° S
Mo, 06.04. 14:00 14 3 29 150° SO
Mo, 06.04. 8:00 11 2 25 140° SO
Ortszeit Stärke Spitze Richtung
km/h Bft. km/h Grad Sektor
Mi, 08.04. 4:00 0 0 4 - -
Mi, 08.04. 3:50 2 1 - 40° NO
Mi, 08.04. 3:40 4 1 - 40° NO
Mi, 08.04. 3:30 2 1 4 40° NO
Mi, 08.04. 3:20 2 1 - 40° NO
Mi, 08.04. 3:10 2 1 - 20° N
Mi, 08.04. 3:00 4 1 7 20° N
Mi, 08.04. 2:30 2 1 6 360° N
Mi, 08.04. 2:00 4 1 7 20° N
Mi, 08.04. 1:30 4 1 7 30° NO
Mi, 08.04. 1:00 4 1 7 250° W
Ortszeit Untergrenze Bedeckung Gattung
total tief tief mittel hoch
Mi, 08.04. 2:00 9000 m 8/8 0/8 - - -
Di, 07.04. 20:00 9000 m 8/8 0/8 - - -
Di, 07.04. 14:00 - 0/8 0/8 - - -
Di, 07.04. 8:00 - 0/8 0/8 - - -
Di, 07.04. 2:00 - 0/8 0/8 - - -
Mo, 06.04. 20:00 - 0/8 0/8 - - -
Mo, 06.04. 14:00 - 0/8 0/8 - - -
Mo, 06.04. 8:00 - 0/8 0/8 - - -
Ortszeit Bedeckungsgrad in Achtel und Wolkenuntergrenze
Mi, 08.04. 4:00 3(9000m)
Mi, 08.04. 3:50 3(9000m)
Mi, 08.04. 3:40 3(10500m)
Mi, 08.04. 3:30 4(10500m)
Mi, 08.04. 3:20 4(10500m)
Mi, 08.04. 3:10 2(10500m) 3(10500m)
Mi, 08.04. 3:00 4(10500m) 7(10500m)
Mi, 08.04. 2:30 3(9000m) 8(10500m)
Mi, 08.04. 2:00 7(9000m) 7(9000m) 8(10500m)
Mi, 08.04. 1:30 7(9000m) 8(9000m) 8(10500m)
Mi, 08.04. 1:00 7(9000m) 8(10500m)
Ortszeit Luftdruck NN (hPa) Tendenz (hPa in 3 Std.)
Mi, 08.04. 2:00 1034 0,0
Di, 07.04. 20:00 1033 + 0,5
Di, 07.04. 14:00 1032 + 1,9
Di, 07.04. 8:00 1027 + 2,3
Di, 07.04. 2:00 1023 + 0,3
Mo, 06.04. 20:00 1022 - 0,3
Mo, 06.04. 14:00 1023 - 1,2
Mo, 06.04. 8:00 1025 - 0,9
Ortszeit Luftdruck NN (hPa) Tendenz (hPa in 3 Std.)
Mi, 08.04. 4:00 1033 - 0,8
Mi, 08.04. 3:50 1033 keine Meldung
Mi, 08.04. 3:40 1033 keine Meldung
Mi, 08.04. 3:30 1033 - 0,8
Mi, 08.04. 3:20 1033 keine Meldung
Mi, 08.04. 3:10 1033 keine Meldung
Mi, 08.04. 3:00 1033 - 0,4
Mi, 08.04. 2:30 1033 - 0,3
Mi, 08.04. 2:00 1034 0,0
Mi, 08.04. 1:30 1034 - 0,1
Mi, 08.04. 1:00 1034 0,0
Ortszeit Schneehöhe (cm)
Mi, 08.04. 2:00 0
Di, 07.04. 20:00 0
Di, 07.04. 14:00 0
Di, 07.04. 8:00 0
Di, 07.04. 2:00 0
Mo, 06.04. 20:00 0
Mo, 06.04. 14:00 0
Mo, 06.04. 8:00 0
Ortszeit Schneehöhe (cm)
Mi, 08.04. 4:00 0
Mi, 08.04. 3:50 0
Mi, 08.04. 3:40 0
Mi, 08.04. 3:30 0
Mi, 08.04. 3:20 0
Mi, 08.04. 3:10 0
Mi, 08.04. 3:00 0
Mi, 08.04. 2:30 0
Mi, 08.04. 2:00 0
Mi, 08.04. 1:30 0
Mi, 08.04. 1:00 0
Link zu dieser Seite / Seite empfehlen

Das Wetter in ...